Regional Weather Roundup
Issued by NWS Kansas City/Pleasant Hill, MO

Home | Current Version | Previous Version | Text Only | Print | Product List | Glossary On
Versions: 1 2 3 4 5 6 7 8 9 10 11 12 13 14 15 16 17 18 19 20 21 22 23 24 25 26 27 28 29 30 31 32 33 34 35 36 37 38 39 40 41 42 43 44 45 46 47 48 49 50
000
ASUS43 KEAX 061804
RWREAX

WEATHER ROUNDUP FOR EASTERN KANSAS AND NORTHWEST MISSOURI
NATIONAL WEATHER SERVICE KANSAS CITY/PLEASANT HILL MO
1200 PM CST FRI MAR 06 2015

KSZ040-057-103>105-MOZ028-029-037-043-061900-
...KANSAS CITY METROPOLITAN AREA...

CITY           SKY/WX    TMP DP  RH WIND       PRES   REMARKS
K.C. INTL      FAIR      50  24  36 SW14      30.29S
6HR MIN TEMP:  28; 6HR MAX TEMP:  50;

K.C. DOWNTOWN  FAIR      52  23  32 W9        30.30F
6HR MIN TEMP:  32; 6HR MAX TEMP:  52;

LEES SUMMIT    FAIR      48  23  37 SW15      30.31S
6HR MIN TEMP:  25; 6HR MAX TEMP:  48;

OLATHE - IXD   FAIR      49  26  41 SW15      30.32F
6HR MIN TEMP:  25; 6HR MAX TEMP:  49;

OLATHE - OJC   FAIR      48  25  40 SW16      30.31F
6HR MIN TEMP:  26; 6HR MAX TEMP:  48;

LAWRENCE       FAIR      51  23  33 W13       30.31F

$$

MOZ001>008-011>017-020>025-030>033-038>040-044>046-053-054-061900-
...NORTHERN AND CENTRAL MISSOURI...

CITY           SKY/WX    TMP DP  RH WIND       PRES   REMARKS
ST. JOSEPH     FAIR      50  24  36 SW14      30.29S
6HR MIN TEMP:  25; 6HR MAX TEMP:  50;

MOSBY          FAIR      46  21  36 SW12      30.30S
WARRENSBURG    FAIR      46  28  49 SW16G23   30.32F
WHITEMAN AFB   NOT AVBL
CLINTON        FAIR      46  32  57 SW14      30.37F
SEDALIA        FAIR      46  28  49 SW18G28   30.33F
6HR MIN TEMP:  26; 6HR MAX TEMP:  46;

WARSAW         NOT AVBL
MARSHALL       FAIR      46  27  46 SW17G23   30.32F
CHILLICOTHE      N/A     49  24  37 W8        30.28S
6HR MIN TEMP:  25; 6HR MAX TEMP:  49;

MOBERLY        FAIR      45  23  42 SW16G25   30.29F
KIRKSVILLE     FAIR      45  22  40 SW13G21   30.25S
6HR MIN TEMP:  20; 6HR MAX TEMP:  45;


$$

MOZ041-047>049-056>058-063>065-088>090-097-061900-
...EASTERN AND SOUTHERN MISSOURI...

CITY           SKY/WX    TMP DP  RH WIND       PRES   REMARKS
ST. LOUIS INTL FAIR      37  16  42 S16G22    30.39F WCI  28
6HR MIN TEMP:  17; 6HR MAX TEMP:  37;

SPIRIT OF STL  FAIR      41  18  39 SW12G20   30.37F WCI  34
COLUMBIA       FAIR      47  26  44 SW18G25   30.32F
JEFFERSON CITY FAIR      46  21  37 SW13      30.35F
MEXICO         FAIR      43  28  56 SW22G28   30.30F WCI  34
HANNIBAL       FAIR      43  18  36 SW12G18   30.28F
ROLLA          FAIR      42  22  44 SW21G28   30.35F WCI  33
OSAGE BEACH    FAIR      46  23  39 SW14G24   30.37F
SPRINGFIELD    FAIR      44  24  45 SW18      30.41F
BRANSON        SUNNY     45  19  36 W6        30.46F
NEVADA         FAIR      45  27  49 SW17G23   30.39F
JOPLIN         FAIR      46  25  43 SW20      30.42F
WEST PLAINS    FAIR      34  16  47 S10       30.46F WCI  26

$$

IAZ060-094-KSZ022-034>040-054-083-096-NEZ052-066-093-061900-
...KANSAS...SOUTHEAST NEBRASKA AND IOWA...

CITY           SKY/WX    TMP DP  RH WIND       PRES   REMARKS
TOPEKA         FAIR      53  23  31 W10G17    30.30F
6HR MIN TEMP:  30; 6HR MAX TEMP:  54;

MANHATTAN      FAIR      52  25  35 SW12      30.30F
EMPORIA        FAIR      52  28  39 SW15G21   30.32F
CHANUTE        FAIR      48  27  44 SW16      30.39F
WICHITA        FAIR      50  29  44 S13       30.37S
OMAHA          FAIR      48  19  31 SW8       30.21F
LINCOLN        FAIR      57  17  21 SW15      30.22F
FALLS CITY     FAIR      56  21  25 W15       30.25F
LAMONI         FAIR      47  23  38 W13       30.22S
DES MOINES     FAIR      43  21  41 W12       30.20R

$$




USA.gov is the U.S. government's official web portal to all federal, state and local government web resources and services.